| time (UTC) | temp C | wind direction | speed KPH | gust KPH | rain 1hr cm | rain 24hr cm | rain mn cm | humidity % | barometer mb |
| 20260504151005 | 11 | 293 | 1.6 | 6.4 | 0.00 | 0.00 | 0.00 | 51 | 1013.5 |
| 20260504141004 | 9 | 217 | 0.0 | 3.2 | 0.00 | 0.00 | 0.00 | 61 | 1013.9 |
| 20260504082005 | 6 | 88 | 0.0 | 3.2 | 0.00 | 0.00 | 0.00 | 59 | 1012.9 |
| 20260504081005 | 6 | 263 | 0.0 | 3.2 | 0.00 | 0.00 | 0.00 | 65 | 1012.9 |
| 20260504050004 | 9 | 183 | 0.0 | 1.6 | 0.00 | 0.00 | 0.00 | 52 | 1013.5 |
| 20260504045005 | 10 | 16 | 0.0 | 1.6 | 0.00 | 0.00 | 0.00 | 52 | 1013.3 |
| 20260504044005 | 10 | 304 | 0.0 | 1.6 | 0.00 | 0.00 | 0.00 | 48 | 1013.3 |
| 20260504043005 | 10 | 87 | 0.0 | 3.2 | 0.00 | 0.00 | 0.00 | 45 | 1013.3 |
| 20260504042005 | 10 | 155 | 0.0 | 1.6 | 0.00 | 0.00 | 0.00 | 48 | 1013.3 |
| 20260504041005 | 11 | 336 | 0.0 | 3.2 | 0.00 | 0.00 | 0.00 | 43 | 1013.3 |
| 20260504040005 | 11 | 106 | 0.0 | 3.2 | 0.00 | 0.00 | 0.00 | 43 | 1013.3 |
| 20260504035004 | 11 | 114 | 0.0 | 3.2 | 0.00 | 0.00 | 0.00 | 43 | 1012.9 |
| 20260504034005 | 12 | 172 | 0.0 | 4.8 | 0.00 | 0.00 | 0.00 | 39 | 1012.9 |
| 20260504033005 | 12 | 167 | 0.0 | 1.6 | 0.00 | 0.00 | 0.00 | 47 | 1012.9 |
| 20260504032005 | 12 | 131 | 0.0 | 3.2 | 0.00 | 0.00 | 0.00 | 38 | 1012.9 |
| 20260504031005 | 12 | 239 | 0.0 | 1.6 | 0.00 | 0.00 | 0.00 | 42 | 1012.9 |
| 20260504030005 | 14 | 207 | 0.0 | 4.8 | 0.00 | 0.00 | 0.00 | 35 | 1012.9 |
| 20260504025005 | 14 | 196 | 1.6 | 8.0 | 0.00 | 0.00 | 0.00 | 34 | 1013.0 |
| 20260504024005 | 16 | 145 | 0.0 | 4.8 | 0.00 | 0.00 | 0.00 | 32 | 1013.0 |
| 20260504023005 | 17 | 139 | 1.6 | 6.4 | 0.00 | 0.00 | 0.00 | 31 | 1013.0 |
| 20260504022005 | 17 | 132 | 1.6 | 6.4 | 0.00 | 0.00 | 0.00 | 27 | 1013.0 |
| 20260504021004 | 18 | 14 | 0.0 | 0.0 | 0.00 | 0.00 | 0.00 | 25 | 1013.0 |
| 20260504020004 | 21 | 13 | 0.0 | 1.6 | 0.00 | 0.00 | 0.00 | 16 | 1013.0 |
| 20260504015005 | 22 | 353 | 0.0 | 1.6 | 0.00 | 0.00 | 0.00 | 15 | 1013.4 |
| 20260504014005 | 23 | 145 | 0.0 | 0.0 | 0.00 | 0.00 | 0.00 | 14 | 1013.4 |
| 20260504013005 | 25 | 129 | 0.0 | 0.0 | 0.00 | 0.00 | 0.00 | 14 | 1013.4 |
| 20260504012004 | 26 | 176 | 0.0 | 1.6 | 0.00 | 0.00 | 0.00 | 13 | 1013.4 |
| 20260504011005 | 26 | 15 | 0.0 | 1.6 | 0.00 | 0.00 | 0.00 | 13 | 1013.4 |
| 20260504010004 | 26 | 4 | 0.0 | 1.6 | 0.00 | 0.00 | 0.00 | 13 | 1013.4 |
| 20260504005004 | 25 | 157 | 0.0 | 4.8 | 0.00 | 0.00 | 0.00 | 12 | 1013.8 |
| 20260504004005 | 24 | 232 | 1.6 | 6.4 | 0.00 | 0.00 | 0.00 | 12 | 1013.8 |
| 20260504003005 | 23 | 166 | 1.6 | 11.3 | 0.00 | 0.00 | 0.00 | 13 | 1013.8 |
| 20260504002005 | 24 | 203 | 1.6 | 9.7 | 0.00 | 0.00 | 0.00 | 18 | 1013.8 |
| 20260504001005 | 25 | 196 | 1.6 | 11.3 | 0.00 | 0.00 | 0.00 | 13 | 1013.8 |
| 20260504000005 | 24 | 182 | 1.6 | 9.7 | 0.00 | 0.00 | 0.00 | 13 | 1013.8 |
| 20260503235004 | 23 | 230 | 3.2 | 16.1 | 0.00 | 0.00 | 0.00 | 13 | 1014.3 |
| 20260503234004 | 23 | 223 | 3.2 | 17.7 | 0.00 | 0.00 | 0.00 | 15 | 1014.3 |
| 20260503233005 | 25 | 210 | 1.6 | 11.3 | 0.00 | 0.00 | 0.00 | 14 | 1014.3 |
| 20260503232005 | 24 | 208 | 1.6 | 16.1 | 0.00 | 0.00 | 0.00 | 15 | 1014.3 |
| 20260503231004 | 23 | 185 | 3.2 | 11.3 | 0.00 | 0.00 | 0.00 | 13 | 1014.3 |
| 20260503230006 | 25 | 166 | 1.6 | 11.3 | 0.00 | 0.00 | 0.00 | 16 | 1014.3 |
| 20260503225005 | 23 | 304 | 1.6 | 11.3 | 0.00 | 0.00 | 0.00 | 18 | 1015.0 |
| 20260503224004 | 23 | 316 | 1.6 | 12.9 | 0.00 | 0.00 | 0.00 | 17 | 1015.0 |
| 20260503223004 | 23 | 332 | 1.6 | 14.5 | 0.00 | 0.00 | 0.00 | 16 | 1015.0 |
| 20260503222005 | 24 | 136 | 1.6 | 11.3 | 0.00 | 0.00 | 0.00 | 16 | 1015.0 |
| 20260503221004 | 23 | 306 | 1.6 | 11.3 | 0.00 | 0.00 | 0.00 | 18 | 1015.0 |
| 20260503220004 | 24 | 310 | 1.6 | 12.9 | 0.00 | 0.00 | 0.00 | 15 | 1015.0 |
| 20260503215005 | 23 | 270 | 3.2 | 12.9 | 0.00 | 0.00 | 0.00 | 15 | 1015.7 |
| 20260503214005 | 23 | 318 | 1.6 | 12.9 | 0.00 | 0.00 | 0.00 | 17 | 1015.7 |
| 20260503213004 | 23 | 314 | 1.6 | 12.9 | 0.00 | 0.00 | 0.00 | 16 | 1015.7 |
| 20260503212004 | 22 | 261 | 1.6 | 12.9 | 0.00 | 0.00 | 0.00 | 18 | 1015.7 |
| 20260503211005 | 23 | 295 | 1.6 | 9.7 | 0.00 | 0.00 | 0.00 | 18 | 1015.7 |
| 20260503210005 | 23 | 224 | 1.6 | 6.4 | 0.00 | 0.00 | 0.00 | 20 | 1015.7 |
| 20260503205004 | 23 | 100 | 0.0 | 4.8 | 0.00 | 0.00 | 0.00 | 23 | 1016.5 |
| 20260503204005 | 22 | 86 | 1.6 | 6.4 | 0.00 | 0.00 | 0.00 | 18 | 1016.5 |
| 20260503203004 | 22 | 27 | 1.6 | 9.7 | 0.00 | 0.00 | 0.00 | 19 | 1016.5 |
| 20260503202004 | 22 | 56 | 0.0 | 6.4 | 0.00 | 0.00 | 0.00 | 21 | 1016.5 |
| 20260503201004 | 21 | 114 | 1.6 | 6.4 | 0.00 | 0.00 | 0.00 | 22 | 1016.5 |
| 20260503200004 | 22 | 318 | 1.6 | 6.4 | 0.00 | 0.00 | 0.00 | 26 | 1016.5 |
| 20260503195005 | 21 | 5 | 1.6 | 6.4 | 0.00 | 0.00 | 0.00 | 24 | 1017.4 |
| 20260503194005 | 22 | 193 | 0.0 | 4.8 | 0.00 | 0.00 | 0.00 | 30 | 1017.4 |
| 20260503193005 | 21 | 36 | 1.6 | 8.0 | 0.00 | 0.00 | 0.00 | 24 | 1017.4 |
| 20260503192005 | 20 | 340 | 1.6 | 8.0 | 0.00 | 0.00 | 0.00 | 29 | 1017.4 |
| 20260503191004 | 20 | 346 | 1.6 | 8.0 | 0.00 | 0.00 | 0.00 | 29 | 1017.4 |
| 20260503190004 | 20 | 317 | 0.0 | 6.4 | 0.00 | 0.00 | 0.00 | 27 | 1017.4 |
| 20260503185005 | 18 | 0 | 1.6 | 8.0 | 0.00 | 0.00 | 0.00 | 29 | 1018.1 |
| 20260503184004 | 19 | 338 | 1.6 | 11.3 | 0.00 | 0.00 | 0.00 | 33 | 1018.1 |
| 20260503183004 | 18 | 294 | 1.6 | 11.3 | 0.00 | 0.00 | 0.00 | 32 | 1018.1 |
| 20260503182005 | 18 | 309 | 1.6 | 9.7 | 0.00 | 0.00 | 0.00 | 34 | 1018.1 |
| 20260503180005 | 17 | 281 | 1.6 | 9.7 | 0.00 | 0.00 | 0.00 | 34 | 1018.1 |
| 20260503175004 | 16 | 285 | 1.6 | 9.7 | 0.00 | 0.00 | 0.00 | 38 | 1018.7 |
| 20260503174004 | 16 | 347 | 1.6 | 9.7 | 0.00 | 0.00 | 0.00 | 36 | 1018.7 |
| 20260503173004 | 15 | 310 | 1.6 | 9.7 | 0.00 | 0.00 | 0.00 | 40 | 1018.7 |
| 20260503172004 | 15 | 40 | 0.0 | 4.8 | 0.00 | 0.00 | 0.00 | 40 | 1018.7 |
| 20260503171004 | 14 | 319 | 1.6 | 8.0 | 0.00 | 0.00 | 0.00 | 39 | 1018.7 |